{"data":{"norad_id":59865,"epoch":"2026-09-21T08:28:57.021600Z","epoch_age_seconds":100726,"freshness":"FRESH","line1":"1 59865U 24098H   26264.35343775 -.00000471  00000+0 -76032-5 0  9999","line2":"2 59865  43.0033 252.7050 0000994 268.0789  91.9949 15.27576383131778","mean_motion":15.27576383,"eccentricity":9.94e-5,"inclination_deg":43.0033,"raan_deg":252.705,"arg_perigee_deg":268.0789,"mean_anomaly_deg":91.9949,"bstar":-7.6032e-6,"rev_number":13177,"period_min":94.266971918746,"perigee_km":482.37792368572,"apogee_km":483.74192963474,"semimajor_km":6861.1969266602,"source":"CELESTRAK","updated_at":"2026-09-22T09:00:49.101617Z"}}